Flag for U.S.A. Weather past 2 weeks in Sunrise Manor, Nevada, U.S.A.

Now
101 °F

Sunny.


Feels Like: 97 °F
Forecast: 74 / 101 °F
Wind: 8 mph from East

Location: Nellis Air Force Base

Current Time: Aug 31, 2015 at 3:58:35 PM

Latest Report: Aug 31, 2015 at 1:58 PM


Visibility: 10 mi

Pressure: 29.72 "Hg (27.97 "Hg at 555m altitude)

Humidity: 16%

Dew point: 47 °F

Location of Sunrise ManorLocation

Historic Weather in Sunrise Manor — Graph

°F

Sunrise Manor temperature yesterday

Maximum temperature yesterday: 102 °F (at 1:58 PM)
Minimum temperature yesterday: 87 °F (at 11:58 PM)
Average temperature yesterday: 94 °F

Past Weeks' High & Low Weather Summary

 TemperatureHumidityPressure
High111 °F (Aug 16, 4:02 PM)47% (Aug 26, 11:58 AM)30.01 "Hg (Aug 26, 11:58 AM)
Low75 °F (Aug 24, 6:58 AM)6% (Aug 18, 2:58 PM)29.57 "Hg (Aug 20, 5:58 PM)
Average94 °F21%29.75 "Hg
* Reported Aug 16 2:00 PM — Aug 31 1:58 PM, Sunrise Manor, Weather by CustomWeather, © 2015

Note: Actual official high and low records may vary slightly from our data, if they occured in-between our weather recording intervals... More about our weather records

Advertising

Sunrise Manor weather history for previous 24 hours

 ConditionsComfort  
Time TempWeatherWind HumidityBarometerVisibility
1:58 PM
Mon, Aug 31
101 °FSunny.8 mph16%29.72 "Hg10 mi
12:58 PM99 °FSunny.13 mph17%29.76 "Hg10 mi
11:58 AM96 °FSunny.No wind17%29.79 "Hg10 mi
10:58 AM93 °FSunny.No wind19%29.81 "Hg10 mi
9:58 AM89 °FSunny.No wind23%29.81 "Hg10 mi
8:58 AM87 °FSunny.9 mph25%29.80 "Hg10 mi
7:58 AM83 °FSunny.2 mph24%29.79 "Hg10 mi
6:58 AM80 °FClear.6 mph26%29.77 "Hg10 mi
5:58 AM77 °FClear.1 mph29%29.76 "Hg10 mi
4:58 AM76 °FClear.6 mph28%29.73 "Hg10 mi
3:58 AM78 °FClear.5 mph27%29.72 "Hg10 mi
2:58 AM80 °FClear.3 mph25%29.72 "Hg10 mi
1:58 AM85 °FClear.No wind23%29.70 "Hg10 mi
12:58 AM84 °FClear.1 mph22%29.70 "Hg10 mi
11:58 PM
Sun, Aug 30
87 °FClear.2 mph20%29.68 "Hg10 mi
10:58 PM89 °FClear.8 mph20%29.67 "Hg10 mi
9:58 PM91 °FClear.10 mph18%29.67 "Hg10 mi
8:58 PM92 °FClear.9 mph17%29.67 "Hg10 mi
7:58 PM94 °FSunny.7 mph16%29.65 "Hg10 mi
6:58 PM97 °FSunny.13 mph14%29.62 "Hg10 mi
5:58 PM99 °FSunny.16 mph11%29.63 "Hg10 mi
4:58 PM100 °FSunny.20 mph10%29.64 "Hg10 mi
3:58 PM101 °FSunny.21 mph8%29.66 "Hg10 mi
Weather by CustomWeather, © 2015

See weather overviewHow to use our weather pages